Tracking 30995 objects as of 7-Jul-2025
HD Live streaming from Space Station
objects crossing your sky now

STARLINK-33830

Track STARLINK-33830 now!
10-day predictions
STARLINK-33830 is classified as:


NORAD ID: 63587
Int'l Code: 2025-076U
Perigee: 489.2 km
Apogee: 491.3 km
Inclination: 43.0 °
Period: 94.3 minutes
Semi major axis: 6861 km
RCS: Unknown
Launch date: April 14, 2025
Source: United States (US)
Launch site: AIR FORCE EASTERN TEST RANGE (AFETR)
Your satellite tracking list
Your tracking list is empty




NASA's NSSDC Master Catalog

Two Line Element Set (TLE):
1 63587U 25076U   25187.91667824 -.00018769  00000-0 -67480-3 0  9996
2 63587  43.0006 269.6724 0001527 261.6251  64.1000 15.27553026 14190
Source of the keplerian elements: AFSPC